Powrót do katalogu

CZ-6A DEB

AktywnyPO
NORAD 64649·DEBRIS·🇨🇳 China

Wystrzelony Aug 6, 2024 z Taiyuan Satellite Launch Center

Loading…

Następne Przeloty (najbliższe 24 godziny)

TLE

ŚwieżeSource: Space-Track

Epoka: Sep 14, 2026, 10:19 UTC

1 64649U 24140AEP 26257.43021485  .00003920  00000-0  92097-3 0  9993
2 64649  88.9174 252.8594 0054910 356.6772   3.4064 14.53348471102233

Śledź CZ-6A DEB w czasie rzeczywistym z AllMySat

Download on the App Store